Location: Casone le Fosse
(44.6547°N, 12.1103°E)
Time: 04:22:16
(UTC+00:00)

ADEOS Rocket - Pass Details

Date: 29 October 2020
Orbit: 859 x 1306 km, 98.7° (Epoch: 01 December)

Event Time Altitude Azimuth Distance (km) Brightness Sun altitude
Rises 16:43:06 0° 10° (N) 3,757 5.8 -7.5°
Reaches altitude 10° 16:45:31 10° 7° (N) 2,860 5.3 -7.9°
Maximum altitude 16:51:54 61° 289° (WNW) 1,271 3.9 -9.0°
Drops below altitude 10° 16:58:57 10° 212° (SSW) 3,147 6.3 -10.3°
Sets 17:01:43 0° 209° (SSW) 4,159 6.9 -10.8°
